User: anonymous   Login
Location: Aghk�ilisa
(40.0189°N, 45.0097°E)
Time: 15:18:48
(UTC+00:00)
Language:

USA 238 - Orbit

View from above orbital plane
View from above orbital plane
View from above satellite
View from above satellite

Ground track
Ground track

The orbit data is extracted from the following two-line orbital elements,

1 38758U 12048A   19333.71715540 0.00000000  00000-0  00000-0 0    08
2 38758  63.4283 182.3944 0111207   2.4501 357.5499 13.40790814    03
Epoch (UTC): 29 November 2019 17:12:42
Eccentricity: 0.0111207
inclination: 63.4283°
perigee height: 1023 km
apogee height: 1189 km
right ascension of ascending node: 182.3944°
argument of perigee: 2.4501°
revolutions per day: 13.40790814
mean anomaly at epoch: 357.5499°
orbit number at epoch: 0

The dashed part of the orbit path shows where the satellite is in the earth's shadow,  

DLR